Location: Mascot Post Office (historical)
(40.2645°N, 99.5462°W)
Time: 02:34:21
(UTC+00:00)

ATLAS 5 CENTAUR R/B - Pass Details

Date: 14 July 2020
Orbit: 534 x 1124 km, 63.4° (Epoch: 09 August)

Event Time Altitude Azimuth Distance (km) Brightness Sun altitude
Rises 08:21:25 0° 334° (NNW) 3,265 5.8 -24.1°
Reaches altitude 10° 08:24:04 10° 346° (NNW) 2,433 5.2 -23.9°
Maximum altitude 08:28:55 28° 45° (NE) 1,653 4.3 -23.5°
Drops below altitude 10° 08:34:23 10° 102° (ESE) 2,767 5.0 -23.0°
Sets 08:37:34 0° 113° (ESE) 3,798 5.7 -22.8°
